Torna al catalogo

CZ-6A DEB

AttivoPO
NORAD 54517·DEBRIS·🇨🇳 China

Lanciato Nov 11, 2022 da Taiyuan Satellite Launch Center

Loading…

Prossimi Passaggi (prossime 24 ore)

TLE

AggiornatoSource: Space-Track

Epoca: Sep 13, 2026, 17:49 UTC

1 54517U 22151JV  26256.74297568  .00008648  00000-0  11319-2 0  9995
2 54517  98.6246 334.4020 0062401 347.9068  12.0639 14.79302067203572

Traccia CZ-6A DEB in tempo reale con AllMySat

Download on the App Store